| time (UTC) | temp F | wind direction | speed MPH | gust MPH | rain 1hr in | rain 24hr in | rain mn in | humidity % | barometer mb |
| 20260505140639 | 67 | 269 | 2.0 | 2.0 | 0.00 | 0.00 | 0.00 | 68 | |
| 20260505123636 | 57 | 360 | 0.0 | 0.0 | 0.00 | 0.00 | 0.00 | 88 | |
| 20260505120635 | 53 | 360 | 0.0 | 0.0 | 0.00 | 0.00 | 0.00 | 92 | |
| 20260505113634 | 52 | 360 | 0.0 | 0.0 | 0.00 | 0.00 | 0.00 | 93 | |
| 20260505110633 | 52 | 360 | 0.0 | 0.0 | 0.00 | 0.00 | 0.00 | 95 | |
| 20260505100631 | 51 | 360 | 0.0 | 0.0 | 0.00 | 0.00 | 0.00 | 92 | |
| 20260505093630 | 52 | 360 | 0.0 | 0.0 | 0.00 | 0.00 | 0.00 | 90 | |
| 20260505090629 | 53 | 360 | 0.0 | 0.0 | 0.00 | 0.00 | 0.00 | 89 | |
| 20260505083628 | 55 | 360 | 0.0 | 0.0 | 0.00 | 0.00 | 0.00 | 87 | |
| 20260505080627 | 54 | 360 | 0.0 | 0.0 | 0.00 | 0.00 | 0.00 | 86 | |
| 20260505073626 | 56 | 360 | 0.0 | 0.0 | 0.00 | 0.00 | 0.00 | 86 | |
| 20260505070625 | 56 | 360 | 0.0 | 0.0 | 0.00 | 0.00 | 0.00 | 82 | |
| 20260505063624 | 57 | 360 | 0.0 | 0.0 | 0.00 | 0.00 | 0.00 | 80 | |
| 20260505060623 | 58 | 360 | 0.0 | 0.0 | 0.00 | 0.00 | 0.00 | 78 | |
| 20260505053622 | 59 | 360 | 0.0 | 0.0 | 0.00 | 0.00 | 0.00 | 78 | |
| 20260505050621 | 59 | 360 | 0.0 | 0.0 | 0.00 | 0.00 | 0.00 | 74 | |
| 20260505040619 | 61 | 360 | 0.0 | 0.0 | 0.00 | 0.00 | 0.00 | 71 | |
| 20260505033618 | 62 | 360 | 0.0 | 0.0 | 0.00 | 0.00 | 0.00 | 68 | |
| 20260505030617 | 63 | 360 | 0.0 | 0.0 | 0.00 | 0.00 | 0.00 | 66 | |
| 20260505023616 | 64 | 360 | 0.0 | 0.0 | 0.00 | 0.00 | 0.00 | 63 | |
| 20260505020615 | 66 | 360 | 0.0 | 0.0 | 0.00 | 0.00 | 0.00 | 62 | |
| 20260505013614 | 68 | 360 | 0.0 | 0.0 | 0.00 | 0.00 | 0.00 | 57 | |
| 20260505010613 | 70 | 360 | 0.0 | 0.0 | 0.00 | 0.00 | 0.00 | 52 | |
| 20260505003612 | 73 | 360 | 0.0 | 0.0 | 0.00 | 0.00 | 0.00 | 46 | |
| 20260505000611 | 74 | 312 | 1.0 | 2.0 | 0.00 | 0.00 | 0.00 | 44 | |
| 20260504233610 | 76 | 271 | 2.0 | 2.0 | 0.00 | 0.00 | 0.00 | 43 | |
| 20260504230609 | 78 | 302 | 2.0 | 2.0 | 0.00 | 0.00 | 0.00 | 44 | |
| 20260504223608 | 78 | 284 | 2.0 | 4.0 | 0.00 | 0.00 | 0.00 | 42 | |
| 20260504220607 | 78 | 285 | 4.0 | 4.0 | 0.00 | 0.00 | 0.00 | 41 | |
| 20260504213606 | 78 | 285 | 3.0 | 3.0 | 0.00 | 0.00 | 0.00 | 42 | |
| 20260504210605 | 78 | 281 | 6.0 | 6.0 | 0.00 | 0.00 | 0.00 | 42 | |
| 20260504203604 | 77 | 294 | 3.0 | 4.0 | 0.00 | 0.00 | 0.00 | 44 | |
| 20260504200603 | 77 | 267 | 5.0 | 5.0 | 0.00 | 0.00 | 0.00 | 43 | |
| 20260504193602 | 77 | 276 | 4.0 | 5.0 | 0.00 | 0.00 | 0.00 | 45 | |
| 20260504190601 | 77 | 304 | 3.0 | 4.0 | 0.00 | 0.00 | 0.00 | 48 | |
| 20260504183600 | 75 | 257 | 4.0 | 6.0 | 0.00 | 0.00 | 0.00 | 49 | |
| 20260504180559 | 75 | 288 | 6.0 | 6.0 | 0.00 | 0.00 | 0.00 | 48 | |
| 20260504173558 | 75 | 250 | 5.0 | 5.0 | 0.00 | 0.00 | 0.00 | 48 | |
| 20260504170557 | 73 | 267 | 5.0 | 5.0 | 0.00 | 0.00 | 0.00 | 49 | |
| 20260504150553 | 68 | 267 | 6.0 | 6.0 | 0.00 | 0.00 | 0.00 | 51 |